Location: Vancouver
(49.2500°N, 123.1330°W)
Time: 09:12:40
(UTC-07:00)

Oscar 11 - Visible Passes

Search period start: 29 July 2015 00:00
Search period end: 08 August 2015 00:00
Orbit: 616 x 626 km, 97.8° (Epoch: 28 July)

Date Brightness Start Highest point End Pass type
(mag) Time Alt. Az. Time Alt. Az. Time Alt. Az.
29 Jul 8.8 22:43:40 10° SSW 22:47:27 28° W 22:51:13 10° NW visible
30 Jul 7.4 21:24:40 10° SE 21:28:52 51° ENE 21:33:07 10° N visible
30 Jul 9.4 23:02:09 10° SW 23:05:22 19° W 23:08:30 10° NW visible
31 Jul 7.1 21:42:13 10° SSE 21:46:33 76° ENE 21:50:57 10° N visible
31 Jul 9.7 23:21:07 10° WSW 23:23:21 13° W 23:25:23 10° WNW visible
01 Aug 7.3 21:59:57 10° S 22:04:17 74° WSW 22:08:40 10° NNW visible
02 Aug 7.9 22:17:51 10° S 22:22:04 49° W 22:26:20 10° NNW visible
03 Aug 8.6 22:35:57 10° SSW 22:39:55 33° W 22:43:52 10° NNW visible
04 Aug 7.6 21:17:17 10° SE 21:21:24 43° ENE 21:25:33 10° N visible
04 Aug 9.2 22:54:18 10° SW 22:57:48 23° W 23:01:14 10° NW visible
05 Aug 7.2 21:34:46 10° SSE 21:39:04 64° ENE 21:43:25 10° N visible
05 Aug 9.6 23:13:02 10° SW 23:15:45 16° W 23:18:20 10° NW visible
06 Aug 7.1 21:52:26 10° SSE 21:56:48 86° W 22:01:11 10° NNW visible
06 Aug 9.9 23:32:50 10° W 23:33:46 10° W 23:34:27 10° WNW visible
07 Aug 7.6 22:10:15 10° S 22:14:33 58° W 22:18:52 10° NNW visible
